EA3GKP-1 Weather Reports


time (UTC)temp
C
wind
direction
speed
KPH
gust
KPH
rain 1hr
cm
rain 24hr
cm
rain mn
cm
humidity
%
barometer
mb
20260504100250 20 10 0.0 0.0 0.00 0.00 0.00 12 1011.0
20260504080716 21 10 0.0 0.0 0.00 0.00 0.00 12 1012.0
20260504060204 17 20 0.0 0.0 0.00 0.00 0.00 15 1012.0
20260504050416 16 22 0.0 0.0 0.00 0.00 0.00 16 1012.0
20260504045439 16 24 0.0 0.0 0.00 0.00 0.00 16 1012.0
20260504044501 17 20 0.0 0.0 0.00 0.00 0.00 16 1012.0
20260504043523 17 22 0.0 0.0 0.00 0.00 0.00 16 1012.0
20260504042545 16 22 0.0 0.0 0.00 0.00 0.00 16 1012.0
20260504041607 16 21 0.0 0.0 0.00 0.00 0.00 16 1012.0
20260504040629 17 22 0.0 0.0 0.00 0.00 0.00 16 1012.0
20260504035652 16 21 0.0 0.0 0.00 0.00 0.00 16 1012.0
20260504034714 16 23 0.0 0.0 0.00 0.00 0.00 16 1012.0
20260504033739 17 21 0.0 0.0 0.00 0.00 0.00 16 1012.0
20260504032758 17 22 0.0 0.0 0.00 0.00 0.00 16 1012.0
20260504031820 17 23 0.0 0.0 0.00 0.00 0.00 16 1013.0
20260504030842 17 21 0.0 0.0 0.00 0.00 0.00 16 1013.0
20260504024926 17 21 0.0 0.0 0.00 0.00 0.00 16 1013.0
20260504023949 17 22 0.0 0.0 0.00 0.00 0.00 16 1012.0
20260504023011 17 21 0.0 0.0 0.00 0.00 0.00 16 1012.0
20260504022035 17 21 0.0 0.0 0.00 0.00 0.00 16 1012.0
20260504021055 17 22 0.0 0.0 0.00 0.00 0.00 16 1013.0
20260504020117 16 22 0.0 0.0 0.00 0.00 0.00 16 1013.0
20260504014202 16 24 0.0 0.0 0.00 0.00 0.00 16 1013.0
20260504013226 16 24 0.0 0.0 0.00 0.00 0.00 16 1013.0
20260504012246 16 22 0.0 0.0 0.00 0.00 0.00 16 1013.0
20260504011310 16 23 0.0 0.0 0.00 0.00 0.00 18 1013.0
20260504010330 16 22 0.0 0.0 0.00 0.00 0.00 18 1013.0
20260504005352 16 25 0.0 0.0 0.00 0.00 0.00 18 1013.0
20260504004415 16 25 0.0 0.0 0.00 0.00 0.00 18 1013.0
20260504003438 16 24 0.0 0.0 0.00 0.00 0.00 18 1013.0
20260504002459 16 25 0.0 0.0 0.00 0.00 0.00 18 1013.0
20260504001522 16 23 0.0 0.0 0.00 0.00 0.00 18 1013.0
20260504000545 16 24 0.0 0.0 0.00 0.00 0.00 18 1013.0
20260503235608 16 23 0.0 0.0 0.00 0.00 0.00 18 1013.0
20260503234632 16 25 0.0 0.0 0.00 0.00 0.00 18 1013.0
20260503233651 16 25 0.0 0.0 0.00 0.00 0.00 18 1013.0
20260503232714 16 26 0.0 0.0 0.00 0.00 0.00 18 1014.0
20260503231736 16 25 0.0 0.0 0.00 0.00 0.00 18 1014.0
20260503230758 16 26 0.0 0.0 0.00 0.00 0.00 18 1013.0
20260503225820 16 24 0.0 0.0 0.00 0.00 0.00 18 1014.0
20260503224842 16 24 0.0 0.0 0.00 0.00 0.00 18 1014.0
20260503223904 16 25 0.0 0.0 0.00 0.00 0.00 18 1014.0
20260503222925 16 25 0.0 0.0 0.00 0.00 0.00 18 1014.0
20260503221948 16 24 0.0 0.0 0.00 0.00 0.00 18 1014.0
20260503221009 16 23 0.0 0.0 0.00 0.00 0.00 18 1014.0
20260503220034 16 24 0.0 0.0 0.00 0.00 0.00 18 1014.0
20260503215053 16 24 0.0 0.0 0.00 0.00 0.00 18 1014.0
20260503214115 16 25 0.0 0.0 0.00 0.00 0.00 18 1014.0
20260503213141 16 25 0.0 0.0 0.00 0.00 0.00 18 1014.0
20260503212200 16 24 0.0 0.0 0.00 0.00 0.00 18 1014.0
20260503211224 16 24 0.0 0.0 0.00 0.00 0.00 18 1014.0
20260503205306 16 25 0.0 0.0 0.00 0.00 0.00 20 1014.0
20260503204328 16 27 0.0 0.0 0.00 0.00 0.00 20 1014.0
20260503203350 16 29 0.0 0.0 0.00 0.00 0.00 20 1014.0
20260503202412 16 29 0.0 0.0 0.00 0.00 0.00 21 1014.0
20260503201434 16 29 0.0 0.0 0.00 0.00 0.00 21 1014.0
20260503200457 16 31 0.0 0.0 0.00 0.00 0.00 21 1014.0
20260503195519 17 31 0.0 0.0 0.00 0.00 0.00 23 1014.0
20260503194541 17 25 0.0 0.0 0.00 0.00 0.00 20 1014.0
20260503193605 17 25 0.0 0.0 0.00 0.00 0.00 20 1014.0
20260503192630 17 26 0.0 0.0 0.00 0.00 0.00 20 1014.0
20260503191647 17 24 0.0 0.0 0.00 0.00 0.00 18 1014.0
20260503190710 17 26 0.0 0.0 0.00 0.00 0.00 18 1013.0
20260503185733 17 23 0.0 0.0 0.00 0.00 0.00 18 1013.0
20260503184754 17 20 0.0 0.0 0.00 0.00 0.00 16 1013.0
20260503183816 17 20 0.0 0.0 0.00 0.00 0.00 16 1013.0
20260503182838 17 21 0.0 0.0 0.00 0.00 0.00 16 1014.0
20260503181900 17 21 0.0 0.0 0.00 0.00 0.00 16 1014.0
20260503180922 17 21 0.0 0.0 0.00 0.00 0.00 16 1013.0
20260503175945 17 20 0.0 0.0 0.00 0.00 0.00 16 1013.0
20260503175007 17 20 0.0 0.0 0.00 0.00 0.00 16 1013.0
20260503174029 17 19 0.0 0.0 0.00 0.00 0.00 16 1013.0
20260503173054 17 21 0.0 0.0 0.00 0.00 0.00 15 1013.0
20260503171137 17 17 0.0 0.0 0.00 0.00 0.00 15 1013.0
20260503170157 17 17 0.0 0.0 0.00 0.00 0.00 15 1013.0
20260503150623 17 14 0.0 0.0 0.00 0.00 0.00 12 1014.0
20260503131049 18 14 0.0 0.0 0.00 0.00 0.00 13 1015.0
20260503130113 18 14 0.0 0.0 0.00 0.00 0.00 13 1015.0